Time,TemperatureF,DewpointF,PressureIn,WindDirection,WindDirectionDegrees,WindSpeedMPH,WindSpeedGustMPH,Humidity,HourlyPrecipIn,Conditions,Clouds,dailyrainin,SoftwareType,DateUTC
2013-02-20 00:11:00,39.5,21.0,30.18,NNE,15,0.0,1.0,48,0.00,,,0.00,weatherlink.com 1.10,2013-02-20 05:11:00,
2013-02-20 00:26:00,39.1,20.0,30.19,North,350,0.0,1.0,47,0.00,,,0.00,weatherlink.com 1.10,2013-02-20 05:26:00,
2013-02-20 00:41:00,38.6,20.0,30.18,NNE,26,0.0,7.0,48,0.00,,,0.00,weatherlink.com 1.10,2013-02-20 05:41:00,
2013-02-20 00:56:00,38.5,20.0,30.19,NW,323,0.0,3.0,47,0.00,,,0.00,weatherlink.com 1.10,2013-02-20 05:56:00,
2013-02-20 01:11:00,38.4,20.0,30.18,West,281,1.0,3.0,47,0.00,,,0.00,weatherlink.com 1.10,2013-02-20 06:11:00,
2013-02-20 01:26:00,38.2,19.0,30.19,NW,324,0.0,5.0,47,0.00,,,0.00,weatherlink.com 1.10,2013-02-20 06:26:00,
2013-02-20 01:41:00,38.0,20.0,30.19,West,275,1.0,5.0,48,0.00,,,0.00,weatherlink.com 1.10,2013-02-20 06:41:00,
2013-02-20 01:56:00,37.7,20.0,30.20,NNW,328,0.0,6.0,49,0.00,,,0.00,weatherlink.com 1.10,2013-02-20 06:56:00,
2013-02-20 02:11:00,37.3,20.0,30.19,North,11,0.0,6.0,50,0.00,,,0.00,weatherlink.com 1.10,2013-02-20 07:11:00,
2013-02-20 02:26:00,36.8,20.0,30.19,NNE,23,0.0,4.0,51,0.00,,,0.00,weatherlink.com 1.10,2013-02-20 07:26:00,
2013-02-20 02:41:00,36.2,20.0,30.19,North,8,3.0,5.0,53,0.00,,,0.00,weatherlink.com 1.10,2013-02-20 07:41:00,
2013-02-20 02:56:00,36.1,20.0,30.19,NE,41,0.0,5.0,52,0.00,,,0.00,weatherlink.com 1.10,2013-02-20 07:56:00,
2013-02-20 03:11:00,35.9,20.0,30.18,North,11,4.0,7.0,53,0.00,,,0.00,weatherlink.com 1.10,2013-02-20 08:11:00,
2013-02-20 03:26:00,35.7,20.0,30.18,ENE,73,0.0,6.0,53,0.00,,,0.00,weatherlink.com 1.10,2013-02-20 08:26:00,
2013-02-20 03:41:00,35.3,20.0,30.18,NE,47,0.0,3.0,53,0.00,,,0.00,weatherlink.com 1.10,2013-02-20 08:41:00,
2013-02-20 03:57:00,35.0,20.0,30.16,NNE,20,2.0,3.0,54,0.00,,,0.00,weatherlink.com 1.10,2013-02-20 08:57:00,
2013-02-20 04:12:00,34.5,19.0,30.16,North,4,5.0,6.0,54,0.00,,,0.00,weatherlink.com 1.10,2013-02-20 09:12:00,
2013-02-20 04:27:00,34.2,19.0,30.16,NW,315,0.0,2.0,55,0.00,,,0.00,weatherlink.com 1.10,2013-02-20 09:27:00,
2013-02-20 04:42:00,33.7,19.0,30.17,WNW,285,0.0,1.0,56,0.00,,,0.00,weatherlink.com 1.10,2013-02-20 09:42:00,
2013-02-20 04:57:00,32.9,19.0,30.16,WNW,300,0.0,1.0,58,0.00,,,0.00,weatherlink.com 1.10,2013-02-20 09:57:00,
2013-02-20 05:12:00,32.3,20.0,30.16,NNW,338,0.0,1.0,60,0.00,,,0.00,weatherlink.com 1.10,2013-02-20 10:12:00,
2013-02-20 05:27:00,32.3,20.0,30.16,NW,311,0.0,1.0,60,0.00,,,0.00,weatherlink.com 1.10,2013-02-20 10:27:00,
2013-02-20 05:42:00,31.8,20.0,30.17,NW,316,0.0,1.0,61,0.00,,,0.00,weatherlink.com 1.10,2013-02-20 10:42:00,
2013-02-20 05:57:00,31.4,20.0,30.17,WNW,300,0.0,1.0,62,0.00,,,0.00,weatherlink.com 1.10,2013-02-20 10:57:00,
2013-02-20 06:12:00,31.2,19.0,30.17,WSW,251,1.0,1.0,62,0.00,,,0.00,weatherlink.com 1.10,2013-02-20 11:12:00,
2013-02-20 06:27:00,31.1,19.0,30.18,North,9,0.0,1.0,62,0.00,,,0.00,weatherlink.com 1.10,2013-02-20 11:27:00,
2013-02-20 06:42:00,31.1,19.0,30.19,SW,232,0.0,1.0,62,0.00,,,0.00,weatherlink.com 1.10,2013-02-20 11:42:00,
2013-02-20 06:57:00,31.0,19.0,30.18,North,5,0.0,2.0,62,0.00,,,0.00,weatherlink.com 1.10,2013-02-20 11:57:00,
2013-02-20 07:12:00,31.1,19.0,30.20,NW,326,0.0,1.0,62,0.00,,,0.00,weatherlink.com 1.10,2013-02-20 12:12:00,
2013-02-20 07:27:00,31.6,19.0,30.20,WNW,300,0.0,4.0,61,0.00,,,0.00,weatherlink.com 1.10,2013-02-20 12:27:00,
2013-02-20 07:42:00,32.1,19.0,30.20,WSW,243,0.0,3.0,59,0.00,,,0.00,weatherlink.com 1.10,2013-02-20 12:42:00,
2013-02-20 07:57:00,32.6,19.0,30.21,SE,138,0.0,4.0,58,0.00,,,0.00,weatherlink.com 1.10,2013-02-20 12:57:00,
2013-02-20 08:12:00,33.2,19.0,30.22,NNE,22,0.0,3.0,56,0.00,,,0.00,weatherlink.com 1.10,2013-02-20 13:12:00,
2013-02-20 08:27:00,34.0,19.0,30.23,NW,320,0.0,2.0,54,0.00,,,0.00,weatherlink.com 1.10,2013-02-20 13:27:00,
2013-02-20 08:42:00,34.7,19.0,30.23,West,280,0.0,4.0,53,0.00,,,0.00,weatherlink.com 1.10,2013-02-20 13:42:00,
2013-02-20 08:58:00,35.5,18.0,30.23,NE,50,0.0,6.0,49,0.00,,,0.00,weatherlink.com 1.10,2013-02-20 13:58:00,
2013-02-20 09:12:00,36.7,18.0,30.23,NNE,27,2.0,6.0,47,0.00,,,0.00,weatherlink.com 1.10,2013-02-20 14:12:00,
2013-02-20 09:27:00,37.7,17.0,30.23,NE,42,1.0,6.0,43,0.00,,,0.00,weatherlink.com 1.10,2013-02-20 14:27:00,
2013-02-20 09:42:00,38.7,16.0,30.23,NE,39,4.0,7.0,40,0.00,,,0.00,weatherlink.com 1.10,2013-02-20 14:42:00,
2013-02-20 09:57:00,39.8,15.0,30.23,North,11,4.0,6.0,37,0.00,,,0.00,weatherlink.com 1.10,2013-02-20 14:57:00,
2013-02-20 10:12:00,40.7,13.0,30.23,NE,56,5.0,11.0,32,0.00,,,0.00,weatherlink.com 1.10,2013-02-20 15:12:00,
2013-02-20 10:27:00,40.6,15.0,30.23,NE,40,0.0,5.0,35,0.00,,,0.00,weatherlink.com 1.10,2013-02-20 15:27:00,
2013-02-20 10:42:00,41.5,13.0,30.22,South,186,2.0,7.0,31,0.00,,,0.00,weatherlink.com 1.10,2013-02-20 15:42:00,
2013-02-20 10:57:00,43.0,13.0,30.21,NW,316,1.0,5.0,30,0.00,,,0.00,weatherlink.com 1.10,2013-02-20 15:57:00,
2013-02-20 11:12:00,44.5,12.0,30.20,NNW,340,2.0,7.0,27,0.00,,,0.00,weatherlink.com 1.10,2013-02-20 16:12:00,
2013-02-20 11:28:00,45.5,12.0,30.20,NNE,15,0.0,6.0,26,0.00,,,0.00,weatherlink.com 1.10,2013-02-20 16:28:00,
2013-02-20 11:43:00,46.5,13.0,30.21,WSW,257,1.0,8.0,26,0.00,,,0.00,weatherlink.com 1.10,2013-02-20 16:43:00,
2013-02-20 11:58:00,47.2,13.0,30.21,SE,124,0.0,8.0,25,0.00,,,0.00,weatherlink.com 1.10,2013-02-20 16:58:00,
2013-02-20 12:13:00,48.0,13.0,30.21,North,357,4.0,9.0,24,0.00,,,0.00,weatherlink.com 1.10,2013-02-20 17:13:00,
2013-02-20 12:28:00,48.8,13.0,30.20,WSW,254,2.0,9.0,24,0.00,,,0.00,weatherlink.com 1.10,2013-02-20 17:28:00,
2013-02-20 12:43:00,49.3,14.0,30.21,SW,229,2.0,8.0,24,0.00,,,0.00,weatherlink.com 1.10,2013-02-20 17:43:00,
2013-02-20 12:58:00,48.4,12.0,30.20,West,276,0.0,6.0,23,0.00,,,0.00,weatherlink.com 1.10,2013-02-20 17:58:00,
2013-02-20 13:13:00,49.0,14.0,30.19,North,6,1.0,5.0,25,0.00,,,0.00,weatherlink.com 1.10,2013-02-20 18:13:00,
2013-02-20 13:28:00,49.1,16.0,30.18,North,8,2.0,8.0,27,0.00,,,0.00,weatherlink.com 1.10,2013-02-20 18:28:00,
2013-02-20 13:43:00,50.1,15.0,30.18,East,96,2.0,5.0,25,0.00,,,0.00,weatherlink.com 1.10,2013-02-20 18:43:00,
2013-02-20 13:58:00,50.8,16.0,30.18,ESE,110,2.0,6.0,25,0.00,,,0.00,weatherlink.com 1.10,2013-02-20 18:58:00,
2013-02-20 14:13:00,50.1,14.0,30.17,West,274,0.0,7.0,24,0.00,,,0.00,weatherlink.com 1.10,2013-02-20 19:13:00,
2013-02-20 14:28:00,49.4,14.0,30.16,North,1,2.0,6.0,24,0.00,,,0.00,weatherlink.com 1.10,2013-02-20 19:28:00,
2013-02-20 14:43:00,49.2,12.0,30.16,West,265,1.0,9.0,22,0.00,,,0.00,weatherlink.com 1.10,2013-02-20 19:43:00,
2013-02-20 14:58:00,49.6,12.0,30.18,NE,52,3.0,8.0,22,0.00,,,0.00,weatherlink.com 1.10,2013-02-20 19:58:00,
2013-02-20 15:13:00,49.0,11.0,30.18,North,1,4.0,7.0,22,0.00,,,0.00,weatherlink.com 1.10,2013-02-20 20:13:00,
2013-02-20 15:28:00,48.5,9.0,30.18,NW,325,6.0,10.0,20,0.00,,,0.00,weatherlink.com 1.10,2013-02-20 20:28:00,
2013-02-20 15:43:00,48.1,13.0,30.19,West,266,0.0,6.0,24,0.00,,,0.00,weatherlink.com 1.10,2013-02-20 20:43:00,
2013-02-20 15:58:00,47.3,11.0,30.20,SSW,195,1.0,8.0,23,0.00,,,0.00,weatherlink.com 1.10,2013-02-20 20:58:00,
2013-02-20 16:13:00,46.6,12.0,30.20,NE,45,1.0,7.0,25,0.00,,,0.00,weatherlink.com 1.10,2013-02-20 21:13:00,
2013-02-20 16:28:00,46.2,10.0,30.21,North,353,1.0,7.0,23,0.00,,,0.00,weatherlink.com 1.10,2013-02-20 21:28:00,
2013-02-20 16:43:00,45.7,8.0,30.22,WSW,255,0.0,5.0,21,0.00,,,0.00,weatherlink.com 1.10,2013-02-20 21:43:00,
2013-02-20 16:58:00,45.3,8.0,30.22,ENE,73,0.0,10.0,22,0.00,,,0.00,weatherlink.com 1.10,2013-02-20 21:58:00,
2013-02-20 17:13:00,45.2,10.0,30.23,WSW,248,0.0,6.0,24,0.00,,,0.00,weatherlink.com 1.10,2013-02-20 22:13:00,
2013-02-20 17:28:00,44.7,11.0,30.22,SSE,153,1.0,6.0,25,0.00,,,0.00,weatherlink.com 1.10,2013-02-20 22:28:00,
2013-02-20 17:43:00,43.7,18.0,30.20,North,8,0.0,9.0,36,0.00,,,0.00,weatherlink.com 1.10,2013-02-20 22:43:00,
2013-02-20 17:58:00,42.3,19.0,30.17,NNE,24,0.0,4.0,40,0.00,,,0.00,weatherlink.com 1.10,2013-02-20 22:58:00,
2013-02-20 18:13:00,41.9,20.0,30.16,West,269,0.0,1.0,42,0.00,,,0.00,weatherlink.com 1.10,2013-02-20 23:13:00,
2013-02-20 18:28:00,41.7,18.0,30.16,NNE,14,0.0,4.0,38,0.00,,,0.00,weatherlink.com 1.10,2013-02-20 23:28:00,
2013-02-20 18:43:00,41.6,16.0,30.15,North,349,1.0,2.0,36,0.00,,,0.00,weatherlink.com 1.10,2013-02-20 23:43:00,
2013-02-20 18:58:00,41.2,15.0,30.15,North,9,0.0,4.0,35,0.00,,,0.00,weatherlink.com 1.10,2013-02-20 23:58:00,
2013-02-20 19:13:00,41.2,15.0,30.15,NNE,32,1.0,2.0,35,0.00,,,0.00,weatherlink.com 1.10,2013-02-21 00:13:00,
2013-02-20 19:28:00,41.1,14.0,30.16,North,11,2.0,5.0,33,0.00,,,0.00,weatherlink.com 1.10,2013-02-21 00:28:00,
2013-02-20 19:43:00,40.6,14.0,30.16,North,8,0.0,5.0,34,0.00,,,0.00,weatherlink.com 1.10,2013-02-21 00:43:00,
2013-02-20 19:58:00,40.2,14.0,30.16,NNE,13,2.0,6.0,35,0.00,,,0.00,weatherlink.com 1.10,2013-02-21 00:58:00,
2013-02-20 20:13:00,40.3,15.0,30.16,NE,34,0.0,5.0,35,0.00,,,0.00,weatherlink.com 1.10,2013-02-21 01:13:00,
2013-02-20 20:28:00,40.3,15.0,30.16,NE,34,0.0,3.0,35,0.00,,,0.00,weatherlink.com 1.10,2013-02-21 01:28:00,
2013-02-20 20:43:00,40.3,14.0,30.16,North,350,0.0,1.0,34,0.00,,,0.00,weatherlink.com 1.10,2013-02-21 01:43:00,
2013-02-20 20:58:00,40.0,15.0,30.17,North,354,0.0,0.0,37,0.00,,,0.00,weatherlink.com 1.10,2013-02-21 01:58:00,
2013-02-20 21:13:00,39.4,16.0,30.16,WSW,253,0.0,1.0,39,0.00,,,0.00,weatherlink.com 1.10,2013-02-21 02:13:00,
2013-02-20 21:28:00,39.3,17.0,30.17,SW,221,0.0,1.0,40,0.00,,,0.00,weatherlink.com 1.10,2013-02-21 02:28:00,
2013-02-20 21:43:00,39.3,15.0,30.17,SW,222,0.0,2.0,38,0.00,,,0.00,weatherlink.com 1.10,2013-02-21 02:43:00,
2013-02-20 21:58:00,39.3,15.0,30.17,SW,222,0.0,3.0,38,0.00,,,0.00,weatherlink.com 1.10,2013-02-21 02:58:00,
2013-02-20 22:13:00,39.3,15.0,30.18,East,98,0.0,4.0,38,0.00,,,0.00,weatherlink.com 1.10,2013-02-21 03:13:00,
2013-02-20 22:28:00,39.4,16.0,30.18,North,4,0.0,2.0,39,0.00,,,0.00,weatherlink.com 1.10,2013-02-21 03:28:00,
2013-02-20 22:43:00,39.2,17.0,30.18,West,273,0.0,2.0,41,0.00,,,0.00,weatherlink.com 1.10,2013-02-21 03:43:00,
2013-02-20 22:59:00,39.1,18.0,30.18,WNW,300,0.0,4.0,42,0.00,,,0.00,weatherlink.com 1.10,2013-02-21 03:59:00,
2013-02-20 23:13:00,39.0,18.0,30.17,NNE,27,0.0,2.0,42,0.00,,,0.00,weatherlink.com 1.10,2013-02-21 04:13:00,
2013-02-20 23:28:00,39.0,18.0,30.18,NNW,335,0.0,3.0,43,0.00,,,0.00,weatherlink.com 1.10,2013-02-21 04:28:00,
2013-02-20 23:43:00,38.9,18.0,30.17,NW,326,0.0,3.0,43,0.00,,,0.00,weatherlink.com 1.10,2013-02-21 04:43:00,
2013-02-20 23:58:00,38.8,19.0,30.17,NE,53,0.0,3.0,45,0.00,,,0.00,weatherlink.com 1.10,2013-02-21 04:58:00,